Location: Ariel
(45.9570°N, 122.5700°W)
Time: 00:47:30
(UTC-07:00)

Altair - Pass Details

Date: 21 July 2019
Orbit: 1501 x 1683 km, 47.2° (Epoch: 24 August)

Event Time Altitude Azimuth Distance (km) Brightness Sun altitude
Rises 11:17:14 0° 197° (SSW) 4,659 10.2 54.7°
Reaches altitude 10° 11:20:51 10° 186° (S) 3,663 9.9 55.2°
Maximum altitude 11:28:08 27° 133° (SE) 2,548 10.0 56.1°
Drops below altitude 10° 11:35:24 10° 80° (E) 3,658 9.9 57.1°
Sets 11:38:59 0° 69° (ENE) 4,652 10.2 57.6°
